Starlink 32380

operational
NORAD ID: 61069 Int'l Des: 2024-164 Owner: SPXS Country: US Constellation: starlink
LEOCIRCULAR

Starlink 32380について

説明を読み込み中...

リアルタイム位置

3D地球を読み込み中...

次回通過

高度履歴

Altitude vs Time

uPlot chart will show altitude changes over time

軌道要素

1 61069U 24164V 25259.08231849 .00000273 00000-0 21346-4 0 9999
2 61069 53.1597 182.2058 0001120 75.2161 284.8964 15.30196742 56747
Epoch: Sep 16, 2025 • Age: 18 hours

現在のステータス

高度 493.3 km
速度 7.62 km/s
衛星直下点 -50.27°S, 171.89°E
打ち上げ日 Sep 13, 2024
運用期間 1 years
タイプ internet

技術仕様

分類 Payload
質量 730.00 kg
乾燥質量 700.00 kg
総質量 730.00 kg
長さ 0.30 m
直径 4.10 m
スパン 29.00 m
形状 Box + pan
製造者 SPXS
バスタイプ Starlink V2M
フェーズステータス In Orbit
所有者/国 SPXS/US

大規模コンステレーション

Loading constellations...